Regional Weather Roundup
Issued by NWS Mobile, AL

Home | Current Version | Previous Version | Text Only | Print | Product List | Glossary On
Versions: 1 2 3 4 5 6 7 8 9 10 11 12 13 14 15 16 17 18 19 20 21 22 23 24 25 26 27 28 29 30 31 32 33 34 35 36 37 38 39 40 41 42 43 44 45 46 47 48 49 50
144
ASUS44 KMOB 200012
RWRMOB
REGIONAL WEATHER ROUNDUP
NATIONAL WEATHER SERVICE MOBILE AL
700 PM CDT THU APR 19 2018

NOTE: "FAIR" INDICATES FEW OR NO CLOUDS BELOW 12,000 FEET WITH NO
      SIGNIFICANT WEATHER AND/OR OBSTRUCTIONS TO VISIBILITY.

  * THESE STATIONS ARE PART OF THE UNIVERSITY OF SOUTH ALABAMA
    MESONET AND ARE NOT UNDER NWS OR FAA QUALITY CONTROL.

ALZ061>064-200100-
COASTAL ALABAMA

CITY           SKY/WX    TMP DP  RH WIND       PRES   REMARKS
MOBILE REG APT FAIR      70  44  39 NW6       30.12R
6HR MIN TEMP:  70; 6HR MAX TEMP:  79;

BROOKLEY FIELD FAIR      72  44  36 NW8       30.12R
6HR MIN TEMP:  72; 6HR MAX TEMP:  82;

USA CAMPUS*    NOT AVBL
DOG RIVER*     NOT AVBL


CITY           SKY/WX    TMP DP  RH WIND       PRES   REMARKS
GULF SHORES    FAIR      73  46  37 N13       30.09R

$$

ALZ051>060-200100-
INTERIOR SOUTHWEST AND SOUTH CENTRAL ALABAMA

CITY           SKY/WX    TMP DP  RH WIND       PRES   REMARKS
GREENVILLE     FAIR      66  39  37 NW9       30.12R
6HR MIN TEMP:  66; 6HR MAX TEMP:  74;

EVERGREEN      FAIR      66  44  45 N7        30.14R
6HR MIN TEMP:  66; 6HR MAX TEMP:  76;

ATMORE*          N/A     66  46  48 N13       30.86R
ANDALUSIA/OPP  FAIR      70  42  36 N12       30.11R
6HR MIN TEMP:  70; 6HR MAX TEMP:  82;

ANDALUSIA*       N/A     66  43  42 NW9       30.11R
FLORALA APT    FAIR      70  43  37 N7        30.11R
6HR MIN TEMP:  70; 6HR MAX TEMP:  81;

FLORALA*       NOT AVBL

$$

FLZ001>006-200100-
WESTERN FLORIDA PANHANDLE

CITY           SKY/WX    TMP DP  RH WIND       PRES   REMARKS
PENSACOLA      FAIR      74  43  32 N14       30.08R
6HR MIN TEMP:  74; 6HR MAX TEMP:  83;

NAS PENSACOLA  FAIR      74  46  36 N10       30.08R
6HR MIN TEMP:  74; 6HR MAX TEMP:  82;

MILTON         FAIR      71  45  39 N13       30.10R
6HR MIN TEMP:  71; 6HR MAX TEMP:  80;

WHTNG S FIELD  FAIR      70  45  40 N10       30.09R
6HR MIN TEMP:  70; 6HR MAX TEMP:  82;



CITY           SKY/WX    TMP DP  RH WIND       PRES   REMARKS
JAY*           NOT AVBL
DUKE FIELD     PTCLDY    74  47  37 N12       30.07R
CRESTVIEW      FAIR      73  45  36 N9G17     30.09R
6HR MIN TEMP:  73; 6HR MAX TEMP:  83;

VALPARAISO     PTCLDY    77  46  33 N12       30.05R
6HR MIN TEMP:  77; 6HR MAX TEMP:  84;

DESTIN         FAIR      75  61  61 VRB6      30.06R
6HR MIN TEMP:  75; 6HR MAX TEMP:  80;


$$

MSZ076-079-200100-
INTERIOR SOUTHEAST MISSISSIPPI

CITY           SKY/WX    TMP DP  RH WIND       PRES   REMARKS
LEAKESVILLE*   NOT AVBL
AGRICOLA*        N/A     68  46  45 NW5       30.13R

$$

MARINE OBSERVATIONS

STATION/POSITION TIME  TEMP    WIND        PRES    WAVE
                       AIR SEA DIR/SP/G            HT/PER
                 (UTC) (F)     (DEG/KT/KT) (MB)    (FT/S)
PETIT BOIS ISLND 2348          360/ 16/ 19 1020.0R
GRAND BAY        2245   75     340/ 12     1020.0S
KATRINA CUT      2330   74     340/ 16     1019.3S
CEDAR POINT      2330   75     340/ 13       N/A
E DAUPHIN ISLAND 0000   74     330/ 13/ 16 1019.0R
MIDDLE BAY LIGHT 2330   75     330/ 13     1018.6S
USCG MOBILE BAY  2342      70  320/  5/ 10 1019.5R
STATE DOCKS      2342      66              1019.4R
MEAHER PARK      2330   73     330/  7     1019.0S
WEEKS BAY        2245   75                 1019.0R
FORT MORGAN      2348           10/  7/  9   N/A
12 S ORANGE BCH  2350   71     280/ 14/ 16 1018.5R   2/ 3
PENSACOLA BAY    2342      72  360/  9/ 15 1018.8R
64 S DAUPHIN ISL 2350      72  310/  8/ 10 1019.4F   2/ 5
67 S FORT MORGAN 2330   70                 1019.0S

$$

SELECTED LOCATIONS ACROSS THE REGION

CITY           SKY/WX    TMP DP  RH WIND       PRES   REMARKS
NEW ORLEANS    MOCLDY    73  48  41 N9G20     30.14R
GULFPORT       FAIR      72  44  36 N13       30.12R
PASCAGOULA AP  FAIR      70  41  34 NW6       30.11R
PASCAGOULA*    NOT AVBL
HATTIESBURG    FAIR      66  42  41 N8        30.18R
LAUREL         FAIR      63  42  46 NW7       30.20R
MERIDIAN       FAIR      62  39  42 N13       30.21R
JACKSON        MOCLDY    59  36  42 N13       30.23R
MONTGOMERY     FAIR      66  41  40 N9        30.14R
TROY           FAIR      67  43  41 NW8       30.11R
ASHFORD*         N/A     66  43  42 NW9       30.11R
DOTHAN         FAIR      72  38  29 NW12      30.10R
PANAMA CITY    FAIR      72  64  76 SW10      30.04R

$$





USA.gov is the U.S. government's official web portal to all federal, state and local government web resources and services.